sat.trackr.live / text

‹ back to catalog

STARLINK-36724

NORAD 67914 · 2026-036L

PAYLOAD ACTIVE UNKNOWN

§ Identity

Operator
Country
US
Launch date
2026-02-22
Launch site
AFETR
Launch vehicle
Mass (kg)
RCS (m²)

Purposes: comms

External: N2YO · Heavens-Above · Gunter

§ Orbital elements

Epoch: 2026-05-25T02:54:02.486304Z

Period
94.27 min
Inclination
43.0035°
Eccentricity
0.0000914
Mean motion
15.27594817 rev/d
Perigee alt
482.4 km
Apogee alt
483.6 km
Semi-major
6,861.1 km
B*
4.5574e-4
RAAN
173.4070°
Arg perigee
268.6691°
Mean anomaly
91.4056°
Rev number
1,541

§ Raw data

STARLINK-367241 67914U 26036L   26145.12086211  .00012305  00000+0  45574-3 0  99912 67914  43.0035 173.4070 0000914 268.6691  91.4056 15.27594817 15413

JSON: /api/v1/satellites/67914 · /tle

For live sub-satellite position, see the globe view (requires WebGL).

§ Visibility from observer

Set your observer location to see the next 7 days of passes ≥ 10°. The values pass through the URL so the page stays shareable.

No JS? Fill the form by hand. The geolocation button needs JavaScript.